| time (UTC) | temp C | wind direction | speed KPH | gust KPH | rain 1hr cm | rain 24hr cm | rain mn cm | humidity % | barometer mb |
| 20260507040005 | 6 | 277 | 1.6 | 6.4 | 0.00 | 1.52 | 0.00 | 90 | 1011.6 |
| 20260507035505 | 6 | 259 | 0.0 | 4.8 | 0.00 | 1.78 | 1.52 | 91 | 1011.5 |
| 20260507035005 | 6 | 283 | 0.0 | 4.8 | 0.00 | 1.78 | 1.52 | 91 | 1011.4 |
| 20260507034505 | 6 | 283 | 1.6 | 4.8 | 0.00 | 1.78 | 1.52 | 91 | 1011.3 |
| 20260507034005 | 6 | 266 | 0.0 | 4.8 | 0.00 | 1.78 | 1.52 | 91 | 1011.5 |
| 20260507033502 | 6 | 21 | 1.6 | 4.8 | 0.00 | 1.78 | 1.52 | 91 | 1011.5 |
| 20260507033006 | 6 | 315 | 1.6 | 4.8 | 0.00 | 1.78 | 1.52 | 91 | 1011.5 |
| 20260507032501 | 6 | 308 | 0.0 | 3.2 | 0.00 | 1.78 | 1.52 | 92 | 1011.4 |
| 20260507032000 | 6 | 360 | 0.0 | 3.2 | 0.00 | 1.78 | 1.52 | 92 | 1011.4 |
| 20260507031500 | 6 | 125 | 0.0 | 1.6 | 0.00 | 1.78 | 1.52 | 92 | 1011.3 |
| 20260507031001 | 6 | 263 | 0.0 | 3.2 | 0.00 | 1.78 | 1.52 | 92 | 1011.3 |
| 20260507030503 | 6 | 259 | 0.0 | 3.2 | 0.00 | 1.78 | 1.52 | 92 | 1011.3 |
| 20260507030005 | 6 | 313 | 0.0 | 3.2 | 0.00 | 1.98 | 1.52 | 92 | 1011.3 |
| 20260507025503 | 6 | 263 | 0.0 | 4.8 | 0.00 | 1.98 | 1.52 | 92 | 1011.3 |
| 20260507025001 | 6 | 230 | 0.0 | 4.8 | 0.00 | 1.98 | 1.52 | 92 | 1011.4 |
| 20260507024005 | 6 | 25 | 0.0 | 1.6 | 0.00 | 1.98 | 1.52 | 92 | 1011.4 |
| 20260507023502 | 6 | 9 | 0.0 | 1.6 | 0.00 | 1.98 | 1.52 | 92 | 1011.5 |
| 20260507023001 | 6 | 9 | 0.0 | 1.6 | 0.00 | 1.98 | 1.52 | 92 | 1011.5 |
| 20260507022500 | 6 | 11 | 0.0 | 1.6 | 0.00 | 1.98 | 1.52 | 92 | 1011.5 |
| 20260507022004 | 6 | 11 | 0.0 | 1.6 | 0.00 | 1.98 | 1.52 | 92 | 1011.6 |
| 20260507021501 | 6 | 241 | 0.0 | 0.0 | 0.00 | 1.98 | 1.52 | 92 | 1011.5 |
| 20260507020500 | 6 | 241 | 0.0 | 0.0 | 0.00 | 1.98 | 1.52 | 92 | 1011.5 |
| 20260507020002 | 6 | 241 | 0.0 | 0.0 | 0.00 | 2.31 | 1.52 | 92 | 1011.6 |
| 20260507015500 | 6 | 241 | 0.0 | 0.0 | 0.00 | 2.31 | 1.52 | 92 | 1011.5 |
| 20260507015002 | 6 | 241 | 0.0 | 0.0 | 0.00 | 2.31 | 1.52 | 92 | 1011.7 |
| 20260507014500 | 6 | 241 | 0.0 | 0.0 | 0.00 | 2.31 | 1.52 | 92 | 1011.6 |
| 20260507014004 | 6 | 241 | 0.0 | 0.0 | 0.00 | 2.31 | 1.52 | 92 | 1011.6 |
| 20260507013500 | 6 | 241 | 0.0 | 0.0 | 0.00 | 2.31 | 1.52 | 92 | 1011.5 |
| 20260507012505 | 6 | 241 | 0.0 | 0.0 | 0.00 | 2.31 | 1.52 | 92 | 1011.6 |
| 20260507012004 | 6 | 241 | 0.0 | 0.0 | 0.00 | 2.31 | 1.52 | 92 | 1011.2 |
| 20260507011000 | 6 | 241 | 0.0 | 0.0 | 0.00 | 2.31 | 1.52 | 91 | 1011.2 |
| 20260507010505 | 6 | 241 | 0.0 | 0.0 | 0.00 | 2.31 | 1.52 | 91 | 1011.2 |
| 20260507010005 | 6 | 241 | 0.0 | 0.0 | 0.00 | 2.51 | 1.52 | 91 | 1011.2 |
| 20260507005505 | 6 | 241 | 0.0 | 0.0 | 0.00 | 2.51 | 1.52 | 91 | 1011.1 |
| 20260507005005 | 6 | 241 | 0.0 | 0.0 | 0.00 | 2.51 | 1.52 | 90 | 1011.2 |
| 20260507004506 | 6 | 241 | 0.0 | 0.0 | 0.00 | 2.51 | 1.52 | 90 | 1011.2 |
| 20260507004006 | 6 | 241 | 0.0 | 0.0 | 0.00 | 2.51 | 1.52 | 90 | 1011.1 |
| 20260507003007 | 6 | 241 | 0.0 | 0.0 | 0.00 | 2.51 | 1.52 | 90 | 1011.0 |
| 20260507002506 | 6 | 241 | 0.0 | 0.0 | 0.00 | 2.51 | 1.52 | 89 | 1011.0 |
| 20260507002005 | 6 | 241 | 0.0 | 0.0 | 0.00 | 2.51 | 1.52 | 89 | 1010.9 |
| 20260507001505 | 6 | 241 | 0.0 | 0.0 | 0.00 | 2.51 | 1.52 | 89 | 1010.9 |
| 20260507001005 | 7 | 241 | 0.0 | 0.0 | 0.00 | 2.51 | 1.52 | 89 | 1010.9 |
| 20260507000505 | 7 | 241 | 0.0 | 0.0 | 0.00 | 2.51 | 1.52 | 89 | 1010.9 |
| 20260507000005 | 7 | 241 | 0.0 | 0.0 | 0.00 | 2.51 | 1.52 | 88 | 1010.8 |
| 20260506235500 | 7 | 241 | 0.0 | 0.0 | 0.00 | 2.51 | 1.52 | 88 | 1010.6 |
| 20260506235001 | 7 | 241 | 0.0 | 4.8 | 0.00 | 2.51 | 1.52 | 88 | 1010.5 |
| 20260506234500 | 7 | 274 | 0.0 | 3.2 | 0.00 | 2.51 | 1.52 | 88 | 1010.5 |
| 20260506234002 | 7 | 294 | 0.0 | 1.6 | 0.00 | 2.51 | 1.52 | 88 | 1010.4 |
| 20260506233501 | 7 | 302 | 0.0 | 4.8 | 0.00 | 2.51 | 1.52 | 88 | 1010.4 |
| 20260506233006 | 7 | 302 | 0.0 | 4.8 | 0.00 | 2.51 | 1.52 | 87 | 1010.5 |
| 20260506232502 | 7 | 264 | 0.0 | 3.2 | 0.00 | 2.51 | 1.52 | 87 | 1010.1 |
| 20260506232004 | 7 | 261 | 1.6 | 6.4 | 0.00 | 2.51 | 1.52 | 86 | 1009.8 |
| 20260506231002 | 7 | 242 | 0.0 | 4.8 | 0.00 | 2.51 | 1.52 | 87 | 1010.1 |
| 20260506230502 | 7 | 259 | 0.0 | 1.6 | 0.00 | 2.51 | 1.52 | 87 | 1009.9 |
| 20260506230005 | 7 | 248 | 0.0 | 1.6 | 0.00 | 2.51 | 1.52 | 87 | 1009.7 |
| 20260506225500 | 7 | 248 | 0.0 | 1.6 | 0.00 | 2.51 | 1.52 | 87 | 1009.7 |
| 20260506225006 | 7 | 263 | 0.0 | 0.0 | 0.00 | 2.51 | 1.52 | 87 | 1009.6 |
| 20260506224505 | 7 | 265 | 0.0 | 0.0 | 0.00 | 2.51 | 1.52 | 87 | 1009.5 |
| 20260506223005 | 7 | 257 | 0.0 | 4.8 | 0.00 | 2.51 | 1.52 | 87 | 1010.0 |
| 20260506221505 | 7 | 227 | 0.0 | 3.2 | 0.00 | 2.51 | 1.52 | 87 | 1010.0 |
| 20260506221000 | 7 | 252 | 0.0 | 3.2 | 0.00 | 2.51 | 1.52 | 87 | 1010.0 |
| 20260506220502 | 7 | 236 | 0.0 | 3.2 | 0.00 | 2.51 | 1.52 | 87 | 1010.1 |
| 20260506214459 | 7 | 351 | 1.6 | 6.4 | 0.00 | 2.51 | 1.52 | 87 | 1009.9 |
| 20260506213958 | 7 | 37 | 1.6 | 6.4 | 0.00 | 2.51 | 1.52 | 87 | 1009.9 |
| 20260506213459 | 7 | 266 | 1.6 | 8.0 | 0.00 | 2.51 | 1.52 | 87 | 1009.8 |
| 20260506213000 | 7 | 267 | 1.6 | 8.0 | 0.00 | 2.51 | 1.52 | 88 | 1009.7 |
| 20260506212459 | 7 | 355 | 1.6 | 4.8 | 0.00 | 2.51 | 1.52 | 89 | 1009.6 |
| 20260506211501 | 7 | 254 | 1.6 | 6.4 | 0.00 | 2.51 | 1.52 | 90 | 1009.6 |
| 20260506211000 | 7 | 297 | 1.6 | 4.8 | 0.00 | 2.51 | 1.52 | 90 | 1009.6 |
| 20260506210459 | 7 | 303 | 1.6 | 4.8 | 0.00 | 2.51 | 1.52 | 90 | 1009.8 |
| 20260506210003 | 7 | 254 | 1.6 | 6.4 | 0.00 | 2.51 | 1.52 | 90 | 1009.9 |
| 20260506205501 | 7 | 176 | 1.6 | 6.4 | 0.00 | 2.51 | 1.52 | 90 | 1009.8 |
| 20260506205000 | 7 | 314 | 1.6 | 6.4 | 0.00 | 2.51 | 1.52 | 91 | 1009.7 |
| 20260506204003 | 7 | 232 | 1.6 | 9.7 | 0.00 | 2.51 | 1.52 | 92 | 1009.6 |
| 20260506203506 | 7 | 342 | 1.6 | 9.7 | 0.00 | 2.51 | 1.52 | 92 | 1009.4 |
| 20260506203000 | 7 | 103 | 1.6 | 6.4 | 0.00 | 2.51 | 1.52 | 92 | 1009.4 |
| 20260506202503 | 7 | 283 | 1.6 | 6.4 | 0.00 | 2.51 | 1.52 | 93 | 1009.2 |
| 20260506202003 | 7 | 5 | 1.6 | 6.4 | 0.00 | 2.51 | 1.52 | 94 | 1009.2 |
| 20260506201459 | 7 | 342 | 1.6 | 8.0 | 0.00 | 2.51 | 1.52 | 93 | 1009.2 |
| 20260506201004 | 7 | 217 | 1.6 | 8.0 | 0.00 | 2.51 | 1.52 | 93 | 1009.2 |
| 20260506200501 | 7 | 360 | 3.2 | 6.4 | 0.00 | 2.51 | 1.52 | 93 | 1009.2 |
| 20260506200006 | 7 | 319 | 1.6 | 6.4 | 0.00 | 2.51 | 1.52 | 93 | 1009.2 |
| 20260506195000 | 7 | 311 | 1.6 | 4.8 | 0.00 | 2.51 | 1.52 | 93 | 1009.2 |
| 20260506194500 | 7 | 42 | 1.6 | 6.4 | 0.00 | 2.51 | 1.52 | 93 | 1009.4 |
| 20260506193000 | 7 | 355 | 1.6 | 9.7 | 0.00 | 2.51 | 1.52 | 94 | 1009.3 |
| 20260506192502 | 7 | 360 | 1.6 | 9.7 | 0.00 | 2.51 | 1.52 | 94 | 1009.3 |
| 20260506191959 | 7 | 69 | 1.6 | 4.8 | 0.00 | 2.51 | 1.52 | 94 | 1009.2 |
| 20260506191500 | 7 | 292 | 0.0 | 4.8 | 0.00 | 2.51 | 1.52 | 94 | 1009.1 |
| 20260506191001 | 7 | 35 | 1.6 | 3.2 | 0.00 | 2.51 | 1.52 | 95 | 1008.9 |
| 20260506190500 | 7 | 27 | 1.6 | 6.4 | 0.00 | 2.51 | 1.52 | 94 | 1009.0 |
| 20260506190007 | 7 | 355 | 1.6 | 6.4 | 0.00 | 2.51 | 1.52 | 94 | 1009.0 |
| 20260506185500 | 7 | 304 | 1.6 | 12.9 | 0.00 | 2.51 | 1.52 | 94 | 1009.0 |
| 20260506185000 | 7 | 61 | 1.6 | 6.4 | 0.00 | 2.51 | 1.52 | 94 | 1009.0 |
| 20260506184002 | 7 | 34 | 0.0 | 6.4 | 0.00 | 2.51 | 1.52 | 94 | 1009.0 |
| 20260506183505 | 7 | 309 | 0.0 | 4.8 | 0.00 | 2.51 | 1.52 | 94 | 1009.0 |
| 20260506183003 | 7 | 360 | 1.6 | 4.8 | 0.00 | 2.51 | 1.52 | 94 | 1009.0 |
| 20260506182003 | 7 | 275 | 0.0 | 4.8 | 0.00 | 2.51 | 1.52 | 95 | 1008.8 |
| 20260506181501 | 7 | 202 | 1.6 | 6.4 | 0.00 | 2.51 | 1.52 | 95 | 1008.6 |
| 20260506180501 | 7 | 309 | 1.6 | 8.0 | 0.03 | 2.51 | 1.52 | 94 | 1008.3 |
| 20260506180001 | 7 | 217 | 0.0 | 8.0 | 0.03 | 2.51 | 1.52 | 95 | 1008.3 |
| 20260506175504 | 7 | 348 | 1.6 | 4.8 | 0.03 | 2.51 | 1.52 | 95 | 1008.1 |
| 20260506175000 | 7 | 182 | 1.6 | 9.7 | 0.03 | 2.51 | 1.52 | 95 | 1008.0 |
| 20260506174505 | 7 | 305 | 1.6 | 9.7 | 0.03 | 2.51 | 1.52 | 94 | 1008.0 |
| 20260506174000 | 7 | 333 | 0.0 | 8.0 | 0.03 | 2.51 | 1.52 | 94 | 1008.0 |
| 20260506173503 | 7 | 327 | 0.0 | 6.4 | 0.03 | 2.51 | 1.52 | 95 | 1008.1 |
| 20260506173000 | 7 | 304 | 1.6 | 8.0 | 0.03 | 2.51 | 1.52 | 94 | 1008.2 |
| 20260506172504 | 7 | 303 | 1.6 | 8.0 | 0.03 | 2.51 | 1.52 | 94 | 1008.1 |
| 20260506172001 | 7 | 355 | 1.6 | 6.4 | 0.03 | 2.51 | 1.52 | 95 | 1008.1 |
| 20260506171004 | 7 | 286 | 1.6 | 8.0 | 0.03 | 2.51 | 1.52 | 94 | 1008.0 |
| 20260506170500 | 7 | 335 | 1.6 | 8.0 | 0.00 | 2.49 | 1.50 | 95 | 1007.8 |
| 20260506170006 | 7 | 345 | 0.0 | 4.8 | 0.03 | 2.49 | 1.50 | 95 | 1007.7 |
| 20260506165001 | 7 | 331 | 0.0 | 4.8 | 0.03 | 2.49 | 1.50 | 95 | 1007.9 |
| 20260506164002 | 7 | 314 | 0.0 | 1.6 | 0.03 | 2.49 | 1.50 | 95 | 1007.9 |
| 20260506163502 | 7 | 200 | 0.0 | 3.2 | 0.05 | 2.49 | 1.50 | 95 | 1007.9 |
| 20260506163002 | 7 | 321 | 0.0 | 4.8 | 0.05 | 2.49 | 1.50 | 95 | 1007.9 |
| 20260506162503 | 7 | 22 | 0.0 | 4.8 | 0.05 | 2.49 | 1.50 | 95 | 1007.9 |
| 20260506161506 | 7 | 349 | 0.0 | 4.8 | 0.05 | 2.49 | 1.50 | 96 | 1007.9 |
| 20260506161004 | 7 | 330 | 1.6 | 4.8 | 0.05 | 2.49 | 1.50 | 96 | 1008.1 |
| 20260506160500 | 7 | 338 | 0.0 | 4.8 | 0.05 | 2.49 | 1.50 | 95 | 1008.2 |
| 20260506160000 | 7 | 338 | 0.0 | 4.8 | 0.03 | 2.46 | 1.47 | 95 | 1008.3 |
| 20260506155500 | 7 | 331 | 0.0 | 4.8 | 0.03 | 2.46 | 1.47 | 96 | 1008.2 |
| 20260506154959 | 6 | 335 | 0.0 | 4.8 | 0.03 | 2.46 | 1.47 | 95 | 1008.1 |
| 20260506154458 | 6 | 337 | 0.0 | 3.2 | 0.03 | 2.46 | 1.47 | 96 | 1008.3 |
| 20260506153959 | 6 | 336 | 0.0 | 3.2 | 0.03 | 2.46 | 1.47 | 95 | 1008.3 |
| 20260506152959 | 6 | 28 | 0.0 | 4.8 | 0.03 | 2.44 | 1.45 | 95 | 1008.3 |
| 20260506152458 | 6 | 321 | 0.0 | 3.2 | 0.03 | 2.44 | 1.45 | 95 | 1008.4 |
| 20260506151959 | 6 | 329 | 0.0 | 1.6 | 0.03 | 2.44 | 1.45 | 95 | 1008.2 |
| 20260506151459 | 6 | 311 | 0.0 | 3.2 | 0.03 | 2.44 | 1.45 | 95 | 1008.3 |
| 20260506150959 | 6 | 336 | 0.0 | 4.8 | 0.03 | 2.44 | 1.45 | 95 | 1008.3 |
| 20260506150459 | 6 | 348 | 0.0 | 3.2 | 0.03 | 2.44 | 1.45 | 95 | 1007.8 |
| 20260506145959 | 6 | 355 | 0.0 | 3.2 | 0.03 | 2.44 | 1.45 | 95 | 1007.8 |
| 20260506144959 | 6 | 339 | 0.0 | 4.8 | 0.05 | 2.44 | 1.45 | 95 | 1007.8 |
| 20260506144459 | 6 | 320 | 0.0 | 3.2 | 0.05 | 2.44 | 1.45 | 95 | 1007.6 |
| 20260506143959 | 6 | 323 | 0.0 | 1.6 | 0.08 | 2.44 | 1.45 | 95 | 1007.6 |
| 20260506143459 | 6 | 344 | 0.0 | 3.2 | 0.05 | 2.41 | 1.42 | 95 | 1007.6 |
| 20260506142958 | 6 | 331 | 0.0 | 9.7 | 0.08 | 2.41 | 1.42 | 95 | 1007.5 |
| 20260506142459 | 6 | 14 | 0.0 | 9.7 | 0.08 | 2.41 | 1.42 | 95 | 1007.7 |
| 20260506142000 | 6 | 325 | 0.0 | 3.2 | 0.10 | 2.41 | 1.42 | 96 | 1007.8 |
| 20260506141459 | 6 | 327 | 1.6 | 4.8 | 0.10 | 2.41 | 1.42 | 96 | 1007.7 |
| 20260506140959 | 6 | 338 | 1.6 | 4.8 | 0.10 | 2.41 | 1.42 | 95 | 1007.8 |
| 20260506140458 | 6 | 296 | 0.0 | 3.2 | 0.13 | 2.41 | 1.42 | 95 | 1007.9 |
| 20260506135959 | 6 | 350 | 0.0 | 3.2 | 0.15 | 2.41 | 1.42 | 95 | 1008.0 |
| 20260506135001 | 6 | 360 | 0.0 | 4.8 | 0.18 | 2.39 | 1.40 | 95 | 1008.1 |
| 20260506134459 | 6 | 338 | 0.0 | 4.8 | 0.23 | 2.39 | 1.40 | 95 | 1008.1 |
| 20260506133959 | 6 | 342 | 1.6 | 6.4 | 0.23 | 2.36 | 1.37 | 95 | 1008.0 |
| 20260506133459 | 6 | 5 | 1.6 | 6.4 | 0.28 | 2.36 | 1.37 | 95 | 1008.1 |
| 20260506132958 | 6 | 308 | 1.6 | 4.8 | 0.28 | 2.34 | 1.35 | 95 | 1008.2 |
| 20260506132459 | 6 | 335 | 0.0 | 4.8 | 0.30 | 2.34 | 1.35 | 95 | 1008.2 |
| 20260506130958 | 6 | 329 | 0.0 | 3.2 | 0.30 | 2.31 | 1.32 | 95 | 1008.1 |
| 20260506130500 | 6 | 344 | 0.0 | 3.2 | 0.30 | 2.29 | 1.30 | 95 | 1008.1 |
| 20260506130000 | 6 | 323 | 0.0 | 3.2 | 0.28 | 2.26 | 1.27 | 95 | 1008.3 |
| 20260506125459 | 6 | 5 | 0.0 | 6.4 | 0.25 | 2.24 | 1.24 | 95 | 1008.2 |
| 20260506125000 | 6 | 13 | 0.0 | 6.4 | 0.23 | 2.21 | 1.22 | 95 | 1008.2 |
| 20260506123958 | 6 | 330 | 0.0 | 1.6 | 0.18 | 2.13 | 1.14 | 95 | 1008.2 |
| 20260506123500 | 6 | 349 | 1.6 | 6.4 | 0.13 | 2.08 | 1.09 | 95 | 1008.1 |
| 20260506122959 | 6 | 334 | 1.6 | 8.0 | 0.13 | 2.06 | 1.07 | 95 | 1008.2 |
| 20260506122459 | 6 | 321 | 1.6 | 6.4 | 0.10 | 2.03 | 1.04 | 95 | 1007.9 |
| 20260506122000 | 6 | 350 | 0.0 | 4.8 | 0.10 | 2.01 | 1.02 | 95 | 1007.9 |
| 20260506121459 | 6 | 331 | 1.6 | 6.4 | 0.10 | 2.01 | 1.02 | 95 | 1007.9 |
| 20260506121000 | 6 | 342 | 1.6 | 6.4 | 0.13 | 2.01 | 1.02 | 95 | 1007.8 |
| 20260506120459 | 6 | 319 | 1.6 | 8.0 | 0.10 | 1.98 | 0.99 | 95 | 1007.7 |
| 20260506115500 | 6 | 320 | 1.6 | 6.4 | 0.15 | 1.98 | 0.99 | 95 | 1007.9 |
| 20260506114459 | 6 | 35 | 1.6 | 8.0 | 0.18 | 1.96 | 0.97 | 95 | 1007.9 |
| 20260506114000 | 6 | 340 | 1.6 | 6.4 | 0.18 | 1.96 | 0.97 | 95 | 1008.3 |
| 20260506113504 | 6 | 17 | 1.6 | 6.4 | 0.20 | 1.96 | 0.97 | 95 | 1008.3 |
| 20260506113000 | 6 | 335 | 0.0 | 4.8 | 0.18 | 1.93 | 0.94 | 95 | 1008.2 |
| 20260506112459 | 6 | 338 | 1.6 | 4.8 | 0.20 | 1.93 | 0.94 | 95 | 1008.4 |
| 20260506111959 | 6 | 348 | 1.6 | 8.0 | 0.20 | 1.91 | 0.91 | 95 | 1008.4 |
| 20260506111500 | 6 | 351 | 1.6 | 8.0 | 0.23 | 1.91 | 0.91 | 95 | 1008.4 |
| 20260506110959 | 6 | 46 | 1.6 | 9.7 | 0.23 | 1.88 | 0.89 | 95 | 1008.6 |
| 20260506110459 | 6 | 346 | 0.0 | 8.0 | 0.25 | 1.88 | 0.89 | 95 | 1008.5 |
| 20260506110000 | 6 | 319 | 0.0 | 6.4 | 0.23 | 1.85 | 0.86 | 95 | 1008.6 |
| 20260506105459 | 6 | 313 | 0.0 | 6.4 | 0.23 | 1.83 | 0.84 | 95 | 1008.7 |
| 20260506104959 | 6 | 311 | 0.0 | 3.2 | 0.20 | 1.80 | 0.81 | 95 | 1008.8 |
| 20260506104459 | 6 | 336 | 0.0 | 3.2 | 0.18 | 1.78 | 0.79 | 95 | 1008.7 |
| 20260506103959 | 6 | 355 | 0.0 | 3.2 | 0.18 | 1.78 | 0.79 | 95 | 1008.5 |
| 20260506103500 | 6 | 327 | 0.0 | 3.2 | 0.18 | 1.75 | 0.76 | 95 | 1008.3 |
| 20260506103001 | 6 | 329 | 0.0 | 3.2 | 0.18 | 1.75 | 0.76 | 95 | 1008.2 |
| 20260506102459 | 6 | 68 | 0.0 | 3.2 | 0.15 | 1.73 | 0.74 | 95 | 1008.0 |
| 20260506102001 | 6 | 338 | 0.0 | 1.6 | 0.15 | 1.70 | 0.71 | 95 | 1008.2 |
| 20260506101501 | 6 | 355 | 0.0 | 3.2 | 0.13 | 1.68 | 0.69 | 95 | 1008.2 |
| 20260506100959 | 6 | 355 | 0.0 | 3.2 | 0.13 | 1.65 | 0.66 | 95 | 1008.3 |
| 20260506100459 | 6 | 306 | 0.0 | 3.2 | 0.13 | 1.63 | 0.64 | 95 | 1007.9 |
| 20260506095501 | 6 | 338 | 1.6 | 9.7 | 0.13 | 1.60 | 0.61 | 95 | 1007.9 |
| 20260506095002 | 6 | 10 | 1.6 | 9.7 | 0.13 | 1.60 | 0.61 | 95 | 1007.9 |
| 20260506094500 | 6 | 324 | 1.6 | 8.0 | 0.15 | 1.60 | 0.61 | 95 | 1007.8 |
| 20260506094000 | 6 | 84 | 1.6 | 8.0 | 0.15 | 1.60 | 0.61 | 95 | 1007.9 |
| 20260506093006 | 6 | 57 | 1.6 | 4.8 | 0.13 | 1.57 | 0.58 | 95 | 1008.1 |
| 20260506092500 | 6 | 340 | 3.2 | 6.4 | 0.15 | 1.57 | 0.58 | 95 | 1008.3 |
| 20260506092000 | 6 | 346 | 1.6 | 6.4 | 0.15 | 1.55 | 0.56 | 94 | 1008.6 |
| 20260506091501 | 6 | 299 | 0.0 | 4.8 | 0.15 | 1.55 | 0.56 | 94 | 1008.8 |
| 20260506091005 | 6 | 65 | 1.6 | 6.4 | 0.15 | 1.52 | 0.53 | 94 | 1008.9 |
| 20260506090006 | 6 | 329 | 1.6 | 4.8 | 0.15 | 1.50 | 0.51 | 94 | 1008.8 |
| 20260506085500 | 6 | 350 | 1.6 | 6.4 | 0.13 | 1.47 | 0.48 | 94 | 1008.8 |
| 20260506084501 | 6 | 5 | 1.6 | 8.0 | 0.10 | 1.45 | 0.46 | 94 | 1008.9 |
| 20260506083959 | 6 | 346 | 1.6 | 8.0 | 0.10 | 1.45 | 0.46 | 94 | 1008.7 |
| 20260506083458 | 6 | 317 | 1.6 | 8.0 | 0.10 | 1.45 | 0.46 | 94 | 1008.7 |
| 20260506082959 | 6 | 12 | 1.6 | 8.0 | 0.10 | 1.45 | 0.46 | 94 | 1008.7 |
| 20260506082459 | 6 | 324 | 3.2 | 8.0 | 0.08 | 1.42 | 0.43 | 94 | 1008.6 |
| 20260506081459 | 6 | 344 | 1.6 | 8.0 | 0.05 | 1.40 | 0.41 | 94 | 1008.5 |
| 20260506080958 | 6 | 67 | 1.6 | 4.8 | 0.05 | 1.37 | 0.38 | 94 | 1009.2 |
| 20260506080459 | 6 | 305 | 1.6 | 4.8 | 0.05 | 1.37 | 0.38 | 94 | 1008.9 |
| 20260506073459 | 6 | 330 | 3.2 | 9.7 | 0.10 | 1.35 | 0.36 | 93 | 1008.8 |
| 20260506073000 | 6 | 318 | 4.8 | 12.9 | 0.10 | 1.35 | 0.36 | 93 | 1008.6 |
| 20260506072500 | 6 | 355 | 4.8 | 12.9 | 0.13 | 1.35 | 0.36 | 93 | 1008.6 |
| 20260506072000 | 7 | 286 | 4.8 | 14.5 | 0.15 | 1.35 | 0.36 | 93 | 1008.6 |
| 20260506070959 | 7 | 299 | 4.8 | 12.9 | 0.15 | 1.32 | 0.33 | 94 | 1008.4 |
| 20260506070505 | 7 | 322 | 3.2 | 12.9 | 0.15 | 1.32 | 0.33 | 94 | 1008.5 |
| 20260506062000 | 8 | 87 | 0.0 | 6.4 | 0.05 | 1.19 | 0.20 | 95 | 1008.9 |
| 20260506061500 | 8 | 37 | 0.0 | 4.8 | 0.05 | 1.19 | 0.20 | 95 | 1008.9 |
| 20260506060459 | 8 | 30 | 0.0 | 1.6 | 0.03 | 1.17 | 0.18 | 95 | 1009.1 |
| 20260506050958 | 8 | 346 | 0.0 | 1.6 | 0.08 | 1.14 | 0.15 | 95 | 1009.9 |
| 20260506050459 | 8 | 344 | 0.0 | 3.2 | 0.13 | 1.14 | 0.15 | 95 | 1010.0 |
| 20260506045005 | 8 | 64 | 0.0 | 3.2 | 0.18 | 1.14 | 0.15 | 95 | 1009.8 |
| 20260506044505 | 8 | 292 | 0.0 | 1.6 | 0.20 | 1.12 | 0.13 | 95 | 1010.0 |
| 20260506044001 | 8 | 243 | 0.0 | 1.6 | 0.23 | 1.12 | 0.13 | 95 | 1010.1 |
| 20260506043505 | 8 | 305 | 0.0 | 1.6 | 0.25 | 1.12 | 0.13 | 95 | 1010.0 |
| 20260506043006 | 8 | 297 | 0.0 | 0.0 | 0.28 | 1.12 | 0.13 | 95 | 1010.3 |
| 20260506042504 | 8 | 297 | 0.0 | 1.6 | 0.30 | 1.12 | 0.13 | 95 | 1010.1 |
| 20260506042003 | 8 | 297 | 0.0 | 1.6 | 0.28 | 1.09 | 0.10 | 95 | 1009.8 |